DW9435 Weather Reports


Display with metric or nautical units.
time (UTC)temp
F
wind
direction
speed
MPH
gust
MPH
rain 1hr
in
rain 24hr
in
rain mn
in
humidity
%
barometer
mb
20260505224509 52 108 0.0 2.0 0.00 0.06 0.06 60 1004.4
20260505223008 52 329 3.0 5.0 0.00 0.06 0.06 58 1004.8
20260505221508 53 54 2.0 7.0 0.00 0.06 0.06 59 1004.9
20260505220008 54 33 2.0 5.0 0.00 0.06 0.06 53 1004.9
20260505214505 53 148 6.0 9.0 0.00 0.06 0.06 52 1004.7
20260505213007 52 131 6.0 13.0 0.00 0.06 0.06 53 1004.7
20260505211504 53 142 3.0 11.0 0.00 0.06 0.06 52 1004.6
20260505210004 54 79 3.0 6.0 0.00 0.06 0.06 50 1004.6
20260505204502 54 322 0.0 5.0 0.00 0.06 0.06 51 1004.6
20260505203011 54 103 1.0 11.0 0.00 0.06 0.06 51 1004.6
20260505201501 53 83 3.0 13.0 0.00 0.06 0.06 50 1004.6
20260505200101 53 97 6.0 13.0 0.00 0.06 0.06 53 1004.7
20260505200002 53 147 5.0 13.0 0.00 0.06 0.06 53 1004.7
20260505194602 52 149 6.0 15.0 0.00 0.06 0.06 55 1004.6
20260505193158 51 148 8.0 16.0 0.00 0.06 0.06 56 1004.4
20260505191606 51 128 7.0 16.0 0.00 0.06 0.06 56 1004.6
20260505190057 51 129 11.0 19.0 0.00 0.06 0.06 57 1004.5
20260505184602 50 150 12.0 18.0 0.00 0.06 0.06 57 1004.4
20260505183057 50 82 8.0 18.0 0.00 0.06 0.06 59 1004.4
20260505181555 49 78 5.0 14.0 0.00 0.06 0.06 61 1004.5
20260505180054 49 145 8.0 19.0 0.00 0.06 0.06 61 1004.2
20260505174554 49 106 12.0 21.0 0.00 0.06 0.06 62 1004.6
20260505173053 48 120 9.0 18.0 0.00 0.06 0.06 63 1004.4
20260505171553 48 143 8.0 20.0 0.00 0.06 0.06 66 1004.5
20260505170051 48 65 6.0 18.0 0.00 0.06 0.06 66 1004.4
20260505164550 47 80 9.0 18.0 0.00 0.06 0.06 67 1004.3
20260505163049 47 336 6.0 15.0 0.00 0.06 0.06 68 1004.0
20260505161548 47 125 13.0 22.0 0.00 0.06 0.06 69 1004.0
20260505153047 45 70 13.0 27.0 0.00 0.06 0.06 94 1003.4
20260505151540 45 70 12.0 24.0 0.00 0.06 0.06 93 1002.9
20260505124512 53 38 9.0 14.0 0.00 0.00 0.00 56 1001.6
20260505123015 53 95 6.0 13.0 0.00 0.00 0.00 54 1001.3
20260505121510 53 59 4.0 13.0 0.00 0.00 0.00 54 1001.3
20260505120014 53 240 3.0 5.0 0.00 0.00 0.00 55 1001.4
20260505114508 53 333 4.0 13.0 0.00 0.00 0.00 57 1001.5
20260505113009 53 108 7.0 15.0 0.00 0.00 0.00 60 1001.3
20260505111515 53 177 8.0 17.0 0.00 0.00 0.00 60 1001.3
20260505101601 53 22 7.0 12.0 0.00 0.00 0.00 65 1001.1
20260505100001 54 83 5.0 11.0 0.00 0.00 0.00 63 1001.1
20260505094559 54 253 5.0 11.0 0.00 0.00 0.00 60 1001.2
20260505093058 55 9 4.0 6.0 0.00 0.00 0.00 55 1001.3
20260505091620 55 142 3.0 10.0 0.00 0.00 0.00 53 1001.3
20260505090121 55 356 4.0 9.0 0.00 0.00 0.00 53 1001.3
20260505084614 55 72 4.0 12.0 0.00 0.00 0.00 52 1001.4
20260505083108 55 71 3.0 14.0 0.00 0.00 0.00 52 1001.3
20260505081601 55 64 7.0 17.0 0.00 0.00 0.00 54 1001.3
20260505080059 54 105 8.0 17.0 0.00 0.00 0.00 57 1001.0
20260505074549 54 94 9.0 19.0 0.00 0.00 0.00 59 1001.0
20260505073054 54 63 11.0 20.0 0.00 0.00 0.00 62 1001.1
20260505071550 53 62 10.0 20.0 0.00 0.00 0.00 64 1001.1
20260505070051 53 101 6.0 26.0 0.00 0.00 0.00 64 1001.2
20260505064540 54 326 3.0 13.0 0.00 0.00 0.00 61 1001.4
20260505063044 54 326 2.0 8.0 0.00 0.00 0.00 58 1001.5
20260505061536 54 287 11.0 26.0 0.00 0.00 0.00 57 1001.7
20260505060052 54 165 8.0 18.0 0.00 0.00 0.00 60 1001.6
20260505054532 54 205 7.0 20.0 0.00 0.00 0.00 61 1001.4
20260505053032 54 259 6.0 22.0 0.00 0.00 0.00 62 1001.5
20260505051527 55 208 12.0 29.0 0.00 0.00 0.00 62 1001.5
20260505041515 58 344 3.0 12.0 0.00 0.00 0.00 58 1000.4
20260505040019 59 16 7.0 14.0 0.00 0.00 0.00 54 999.8
20260505034512 59 259 14.0 30.0 0.00 0.00 0.00 48 999.6
20260505033010 60 162 19.0 35.0 0.00 0.00 0.00 51 999.6
20260505031506 61 210 12.0 24.0 0.00 0.00 0.00 43 999.3
20260505030005 62 232 6.0 12.0 0.00 0.00 0.00 39 999.1
20260505024504 62 268 4.0 8.0 0.00 0.00 0.00 38 999.1
20260505023004 62 22 1.0 4.0 0.00 0.00 0.00 38 998.9
20260505021503 63 226 6.0 15.0 0.00 0.00 0.00 38 998.8
20260505020002 63 239 10.0 20.0 0.00 0.00 0.00 38 998.7
20260505014503 63 222 6.0 12.0 0.00 0.00 0.00 37 998.6
20260505013001 63 120 5.0 16.0 0.00 0.00 0.00 38 998.8
20260505011601 64 96 8.0 17.0 0.00 0.00 0.00 37 998.8
20260505011500 64 147 10.0 17.0 0.00 0.00 0.00 37 998.8
20260505010104 67 59 0.0 2.0 0.00 0.00 0.00 31 998.7
20260505004600 66 104 0.0 3.0 0.00 0.00 0.00 31 998.7
20260505003104 66 117 0.0 3.0 0.00 0.00 0.00 32 998.7
20260505001558 66 359 0.0 8.0 0.00 0.00 0.00 33 998.9
20260505000058 65 356 6.0 10.0 0.00 0.00 0.00 33 998.9
20260504234555 66 28 5.0 13.0 0.00 0.00 0.00 33 999.1
20260504233058 67 49 5.0 12.0 0.00 0.00 0.00 31 999.0
20260504231553 66 51 3.0 12.0 0.00 0.00 0.00 33 998.9
20260504230051 66 29 3.0 8.0 0.00 0.00 0.00 32 999.0